Weather in Uvat

Russia / Tyumen Oblast     59°08′31″N   68°53′43″E
temp.,
°C
wind,
m/s
gust,
m/s
humid.,
%
clouds,
%
prec.,
mm/h
press.,
hPa
HPBL,
m
4 august, wed
wed423:00+13nne22967 0.0 101122
02:00+12nnw22963 0.0 101225
05:00+13nnw24970 0.0 101371
08:00+19n24690 0.0 1013346
11:00+23nw23520 0.0 10131427
14:00+26nw334253 0.0 10122279
17:00+23ne235480 0.0 1012937
20:00+19sse117010 0.0 101217
5 august, thu
thu523:00+18ssw2268100 0.0 101245
02:00+17sw1170100 0.0 101214
05:00+15sw00805 0.0 101211
08:00+21ssw1162100 0.0 1012248
11:00+26sw114678 0.0 10111232
14:00+27sw213962 0.0 10102151
17:00+26wsw214292 0.0 10101851
20:00+19w2380100 0.0 101055
6 august, fri
fri623:00+16ese118651 0.0 100911
02:00+16sse118859 0.0 100911
05:00+15s2288100 0.0 100921
08:00+20ese3569100 0.0 1008255
11:00+24se3452100 0.0 1009995
14:00+23s2457100 0.0 1009688
17:00+23sse255795 0.0 1008519
20:00+20ese227171 0.0 100819
7 august, sat
sat723:00+18ese237817 0.0 100852
02:00+17ese368124 0.0 1008106
05:00+16e258335 0.0 100886
08:00+22e356068 0.0 1008297
11:00+26ese474382 0.0 10081801
14:00+26ese3545100 0.0 10081891
17:00+22ene256495 0.0 1008144
20:00+20ene25770 0.0 1008113
8 august, sun
sun823:00+17ene22793 0.0 100932
02:00+17ne36820 0.0 1009119
05:00+16ne23891 0.0 100948
08:00+22ene246820 0.0 1010339
11:00+26nne34494 0.0 10101306
14:00+28ne344194 0.0 10102417
17:00+23nne2264100 0.0 101043
20:00+21e117661 0.1 101019